Location: Unspecified
(17.6330°N, 0.0000°E)
Time: 08:26:43
(UTC+00:00)

S-56A Canister/Altair - Pass Details

Date: 04 July 2019
Orbit: 632 x 2500 km, 38.9° (Epoch: 23 July)

Event Time Altitude Azimuth Distance (km) Brightness Sun altitude
Rises 12:59:14 0° 275° (W) 6,165 12.3 76.1°
Reaches altitude 10° 13:04:17 10° 285° (WNW) 5,074 12.1 75.0°
Maximum altitude 13:16:07 30° 341° (NNW) 3,260 11.4 72.4°
Drops below altitude 10° 13:25:28 10° 38° (NE) 3,969 11.2 70.3°
Sets 13:28:52 0° 50° (NE) 4,680 11.4 69.5°
